Погода в Полице

Польша     53°34′04″N   14°33′35″E
темп.,
°C
ветер,
м/с
пор.,
м/с
влажн.,
%
обл.,
%
осадки,
мм/ч
давл.,
гПа
погр.,
м
27 февраля, сб
сб2701:00+4зсз5128919 0.0 1030522
04:00+3зсз4109533 0.0 1030416
07:00+4сз489065 0.0 1032443
10:00+5сз4785100 0.0 1034447
13:00+8ссз476565 0.0 1036673
16:00+7с36630 0.0 1035485
19:00+3сз12860 0.0 103627
22:00+3з269525 0.0 1036167
28 февраля, вс
вс2801:00+3зюз379557 0.0 1036203
04:00+2з389646 0.0 1034258
07:00+1з389729 0.0 1034233
10:00+5зсз368974 0.0 1034361
13:00+8сз367377 0.0 1034621
16:00+8ссз36731 0.0 1033667
19:00+4ссв12941 0.0 103423
22:00+3з11950 0.0 103422
1 марта, пн
пн101:00+2зюз11950 0.0 103522
04:00+2юз11940 0.0 103422
07:00+1зюз22940 0.0 103522
10:00+6зюз24811 0.0 1035270
13:00+10зюз35650 0.0 1035550
16:00+10з256640 0.0 1034634
19:00+6з228628 0.0 103422
22:00+4зюз22900 0.0 103422
2 марта, вт
вт201:00+3з22900 0.0 103422
04:00+3з12910 0.0 103322
07:00+2зюз12900 0.0 103322
10:00+7зюз22700 0.0 1033241
13:00+11зюз22550 0.0 1032520
16:00+11юз12600 0.0 1031440
19:00+7ю11780 0.0 103122
22:00+5ююв11850 0.0 103122
3 марта, ср
ср301:00+4ююв128711 0.0 103022
04:00+3ю12901 0.0 102922
07:00+3ююз129213 0.0 102822
10:00+8юз24755 0.0 1028274
13:00+12зюз35642 0.0 1027719
16:00+11з35663 0.0 10251074
19:00+7зсз238714 0.0 102471
22:00+5зсз239272 0.0 102468